User: anonymous   Login
Location: Brantford
(43.1330°N, 80.2670°W)
Time: 12:14:09
(UTC-05:00)
Language:

Hubble Space Telescope - Orbit

View from above orbital plane
View from above orbital plane
View from above satellite
View from above satellite

Ground track
Ground track

The orbit data is extracted from the following two-line orbital elements,

1 20580U 90037B   19325.97261872 +.00000468 +00000-0 +17526-4 0  9999
2 20580 028.4694 258.4856 0002674 012.3017 245.6760 15.09302182424439
Epoch (UTC): 21 November 2019 23:20:34
Eccentricity: 0.0002674
inclination: 28.4694°
perigee height: 536 km
apogee height: 540 km
right ascension of ascending node: 258.4856°
argument of perigee: 12.3017°
revolutions per day: 15.09302182
mean anomaly at epoch: 245.6760°
orbit number at epoch: 42443

The dashed part of the orbit path shows where the satellite is in the earth's shadow,  

DLR